Flag for Norway Weather past 2 weeks in Nærbø, Norway

Now
42 °F

Quite cool.


Feels Like: 40 °F
Forecast: 46 / 64 °F
Wind: 3 mph from Northeast

Location: Obrestad


UV Index: 3 (Moderate)

Visibility: N/A


Pressure: 30.23 "Hg

Humidity: 88%

Dew point: 39 °F

Location of NærbøLocation

Historic Weather in Nærbø

°F

Nærbø temperature yesterday

Maximum temperature yesterday: 50 °F (at 2:00 PM)
Minimum temperature yesterday: 35 °F (at 6:00 AM)
Average temperature yesterday: 45 °F

Past Weeks' High & Low Weather Summary

 TemperatureHumidityPressure
High50 °F (Apr 19, 2:00 PM)98% (Apr 6, 10:00 PM)30.38 "Hg (Apr 6, 10:00 PM)
Low35 °F (Apr 19, 6:00 AM)52% (Apr 5, 6:00 AM)29.41 "Hg (Apr 8, 5:00 AM)
Average44 °F88%29.90 "Hg
* Reported Apr 5 1:00 AM — Apr 20 1:00 AM, Nærbø, Weather by CustomWeather, © 2014

Note: Actual official high and low records may vary slightly from our data, if they occured in-between our weather recording intervals... More about our weather records

Advertising

Historic Weather Conditions — Data for Previous 24 hours

 ConditionsComfort  
Time TempWeatherWind HumidityBarometerVisibility
1:00 AM
Apr 20
42 °FQuite cool.3 mph92%30.24 "HgN/A
12:00 AM42 °FQuite cool.3 mph92%30.25 "HgN/A
11:00 PM
Apr 19
42 °FQuite cool.3 mph90%30.26 "HgN/A
10:00 PM44 °FQuite cool.3 mph87%30.26 "HgN/A
9:00 PM46 °FCool.3 mph84%30.27 "HgN/A
8:00 PM47 °FCool.2 mph79%30.26 "HgN/A
7:00 PM47 °FCool.1 mph76%30.27 "HgN/A
6:00 PM48 °FCool.1 mph76%30.29 "HgN/A
5:00 PM49 °FCool.3 mph77%30.29 "HgN/A
4:00 PM49 °FCool.2 mph78%30.29 "HgN/A
3:00 PM49 °FCool.3 mph74%30.30 "HgN/A
2:00 PM50 °FCool.2 mph71%30.31 "HgN/A
1:00 PM50 °FCool.3 mph68%30.31 "HgN/A
12:00 PM50 °FCool.3 mph68%30.30 "HgN/A
11:00 AM49 °FCool.5 mph70%30.30 "HgN/A
10:00 AM49 °FCool.5 mph66%30.29 "HgN/A
9:00 AM49 °FCool.2 mph67%30.29 "HgN/A
8:00 AM40 °FQuite cool.3 mph76%30.28 "HgN/A
7:00 AM42 °FQuite cool.5 mph71%30.26 "HgN/A
6:00 AM35 °FChilly.1 mph84%30.25 "HgN/A
5:00 AM40 °FQuite cool.1 mph73%30.24 "HgN/A
4:00 AM39 °FChilly.2 mph82%30.24 "HgN/A
3:00 AM36 °FChilly.2 mph84%30.24 "HgN/A
2:00 AM39 °FChilly.2 mph81%30.23 "HgN/A
Weather by CustomWeather, © 2014

See weather overview